Weather History for KPRC - May, 2013

Change the Weather History Date:

Sunday, May 19, 2013

  Actual Average Record
Temperature  
Mean Temperature 67 °F 63 °F  
Max Temperature 79 °F 78 °F 93 °F (2008)
Min Temperature 54 °F 48 °F 33 °F (1971)
Degree Days  
Heating Degree Days 0    
Month to date heating degree days 80  
Since 1 July heating degree days 3896  
Cooling Degree Days 2    
Month to date cooling degree days 18  
Year to date cooling degree days 22  
Growing Degree Days 16 (Base 50)    
Moisture  
Dew Point 24 °F    
Average Humidity 22    
Maximum Humidity 36    
Minimum Humidity 11    
Precipitation  
Precipitation 0.00 in 0.01 in 1.03 in (1997)
Month to date precipitation 0.03 0.28  
Year to date precipitation 2.51 4.36  
Sea Level Pressure  
Sea Level Pressure 29.80 in    
Wind  
Wind Speed 11 mph (WSW)    
Max Wind Speed 26 mph    
Max Gust Speed 33 mph    
Visibility 10 miles    
Events      
T = Trace of Precipitation, MM = Missing Value Source: NWS Daily Summary

Daily Weather History Graph

Daily Weather History Graph

Search for Another Location

Airport or City:

Trip Planner

Search our weather history database for the weather conditions in past years. The results will help you decide how hot, cold, wet, or windy it might be!

Date:

Astronomy

May. 19, 2013 Rise Set
Actual Time 5:23 AM MST 7:28 PM MST
Civil Twilight 4:55 AM MST 7:57 PM MST
Nautical Twilight 4:21 AM MST 8:31 PM MST
Astronomical Twilight 3:44 AM MST 9:08 PM MST
Moon 1:50 PM MST (5/19) 1:34 AM MST (5/19)
Length of Visible Light 15h 01m
Length of Day
14h 05m
Waxing Gibbous, 66% of the Moon is Illuminated
May 19
Waxing Gibbous
May 24
Full
May 31
Last Quarter
Jun 8
New
Jun 16
First Quarter

Hourly Weather History & Observations

Time (MST) Temp. Dew Point Humidity Pressure Visibility Wind Dir Wind Speed Gust Speed Precip Events Conditions
12:53 AM 57.9 °F 30.0 °F 35% 29.82 in 10.0 mi SSW 10.4 mph - N/A   Clear
1:53 AM 57.0 °F 30.0 °F 36% 29.81 in 10.0 mi SSW 9.2 mph - N/A   Clear
2:53 AM 57.0 °F 30.0 °F 36% 29.81 in 10.0 mi South 9.2 mph - N/A   Clear
3:53 AM 55.9 °F 28.9 °F 36% 29.81 in 10.0 mi South 6.9 mph - N/A   Clear
5:53 AM 55.9 °F 28.0 °F 34% 29.83 in 10.0 mi SE 4.6 mph - N/A   Clear
6:53 AM 62.1 °F 30.0 °F 30% 29.84 in 10.0 mi SE 3.5 mph - N/A   Clear
7:53 AM 66.0 °F 28.0 °F 24% 29.84 in 10.0 mi Calm Calm - N/A   Clear
8:53 AM 70.0 °F 28.0 °F 21% 29.83 in 10.0 mi Calm Calm - N/A   Clear
9:53 AM 73.9 °F 26.1 °F 17% 29.81 in 10.0 mi West 12.7 mph 25.3 mph N/A   Partly Cloudy
10:53 AM 73.9 °F 24.1 °F 16% 29.81 in 10.0 mi West 11.5 mph 20.7 mph N/A   Partly Cloudy
1:53 PM 77.0 °F 21.9 °F 13% 29.77 in 10.0 mi West 15.0 mph 28.8 mph N/A   Partly Cloudy
2:53 PM 78.1 °F 21.9 °F 12% 29.75 in 10.0 mi SW 18.4 mph 27.6 mph N/A   Clear
3:53 PM 78.1 °F 19.0 °F 11% 29.74 in 10.0 mi West 21.9 mph 28.8 mph N/A   Clear
4:53 PM 77.0 °F 19.9 °F 12% 29.74 in 10.0 mi WSW 21.9 mph 29.9 mph N/A   Clear
5:53 PM 75.9 °F 19.0 °F 12% 29.73 in 10.0 mi West 19.6 mph 26.5 mph N/A   Clear
6:53 PM 73.9 °F 19.0 °F 13% 29.73 in 10.0 mi West 13.8 mph 23.0 mph N/A   Clear
7:53 PM 70.0 °F 18.0 °F 14% 29.76 in 10.0 mi NW 8.1 mph - N/A   Clear
9:53 PM 63.0 °F 21.0 °F 20% 29.81 in 10.0 mi WNW 8.1 mph - N/A   Clear
10:53 PM 61.0 °F 21.0 °F 21% 29.82 in 10.0 mi WNW 8.1 mph - N/A   Clear
11:53 PM 57.9 °F 23.0 °F 26% 29.85 in 10.0 mi WNW 6.9 mph - N/A   Clear